KD9DD-13 Weather Reports


Display with metric or nautical units.
time (UTC)temp
F
wind
direction
speed
MPH
gust
MPH
rain 1hr
in
rain 24hr
in
rain mn
in
humidity
%
barometer
mb
20260906012547 78 0.0 0.0 0.00 0.46 0.46 97 1011.1
20260906011525 78 0.0 0.0 0.00 0.46 0.46 97 1011.0
20260906010517 78 0.0 0.0 0.00 0.46 0.46 97 1010.9
20260906005522 78 0.0 0.0 0.00 0.46 0.46 96 1010.8
20260906004543 79 0.0 0.0 0.00 0.46 0.46 96 1010.9
20260906003518 79 0.0 0.0 0.00 0.46 0.46 96 1010.8
20260906002517 79 0.0 0.0 0.00 0.46 0.46 95 1010.7
20260906001522 79 0.0 0.0 0.00 0.46 0.46 94 1010.7
20260906000525 80 0.0 0.0 0.00 0.46 0.46 93 1010.7
20260905235529 80 0.0 0.0 0.00 0.46 0.46 93 1010.8
20260905234515 80 0.0 0.0 0.00 0.46 0.46 94 1010.9
20260905233519 80 0.0 0.0 0.13 0.46 0.46 96 1010.8
20260905232523 79 0.0 0.0 0.36 0.46 0.46 95 1010.9
20260905231529 79 180 1.0 3.0 0.46 0.46 0.46 95 1010.9
20260905230532 79 0.0 1.0 0.46 0.46 0.46 92 1010.9
20260905225518 79 150 0.0 2.0 0.46 0.46 0.46 92 1010.8
20260905224524 79 3 2.0 4.0 0.46 0.46 0.46 84 1011.5
20260905223526 83 93 6.0 10.0 0.33 0.33 0.33 78 1012.0
20260905222531 88 159 4.0 7.0 0.10 0.10 0.10 74 1010.9
20260905221517 89 180 0.0 1.0 0.00 0.00 0.00 68 1011.1
20260905220521 91 189 5.0 8.0 0.00 0.00 0.00 64 1011.1
20260905215525 97 166 3.0 5.0 0.00 0.00 0.00 48 1010.8
20260905214529 98 184 3.0 5.0 0.00 0.00 0.00 49 1010.4
20260905213516 98 183 3.0 5.0 0.00 0.00 0.00 48 1010.6
20260905212520 99 123 4.0 7.0 0.00 0.00 0.00 47 1010.7
20260905211546 101 160 5.0 10.0 0.00 0.00 0.00 45 1010.8
20260905210550 103 176 3.0 5.0 0.00 0.00 0.00 43 1010.8
20260905205532 103 167 4.0 7.0 0.00 0.00 0.00 43 1010.8
20260905204519 103 177 3.0 5.0 0.00 0.00 0.00 43 1010.9
20260905203523 103 153 3.0 4.0 0.00 0.00 0.00 44 1010.9
20260905202529 102 142 4.0 5.0 0.00 0.00 0.00 44 1011.0
20260905201531 102 174 5.0 8.0 0.00 0.00 0.00 44 1011.1
20260905200517 103 195 3.0 6.0 0.00 0.00 0.00 43 1011.2
20260905195522 103 139 3.0 5.0 0.00 0.00 0.00 43 1011.3
20260905194526 103 166 4.0 7.0 0.00 0.00 0.00 43 1011.3
20260905193525 104 147 4.0 6.0 0.00 0.00 0.00 42 1011.5
20260905192538 105 164 3.0 5.0 0.00 0.00 0.00 43 1011.7
20260905191540 105 185 3.0 4.0 0.00 0.00 0.00 43 1011.7
20260905190519 104 213 3.0 4.0 0.00 0.00 0.00 44 1011.7
20260905185517 105 103 3.0 7.0 0.00 0.00 0.00 43 1011.9
20260905184515 104 118 3.0 7.0 0.00 0.00 0.00 43 1012.1
20260905183519 104 135 4.0 7.0 0.00 0.00 0.00 44 1012.2
20260905182523 104 128 3.0 4.0 0.00 0.00 0.00 45 1012.4
20260905181528 103 331 3.0 5.0 0.00 0.00 0.00 46 1012.5
20260905180552 103 122 3.0 5.0 0.00 0.00 0.00 46 1012.5
20260905175518 103 169 2.0 4.0 0.00 0.00 0.00 48 1012.5
20260905174524 102 155 2.0 3.0 0.00 0.00 0.00 49 1012.5
20260905173526 102 104 3.0 7.0 0.00 0.00 0.00 49 1012.5
20260905172533 101 192 3.0 5.0 0.00 0.00 0.00 51 1012.7
20260905171539 101 300 2.0 3.0 0.00 0.00 0.00 52 1012.8
20260905170521 100 171 3.0 4.0 0.00 0.00 0.00 53 1012.9
20260905165649 100 354 2.0 4.0 0.00 0.00 0.00 53 1013.0
20260905164531 98 182 3.0 4.0 0.00 0.00 0.00 54 1013.2
20260905163516 99 141 2.0 3.0 0.00 0.00 0.00 54 1013.4
20260905162520 97 74 2.0 3.0 0.00 0.00 0.00 56 1013.4
20260905161546 96 261 2.0 3.0 0.00 0.00 0.00 57 1013.4
20260905160528 95 321 2.0 4.0 0.00 0.00 0.00 59 1013.4
20260905155553 93 17 1.0 2.0 0.00 0.00 0.00 62 1013.4
20260905154519 91 195 1.0 4.0 0.00 0.00 0.00 65 1013.5
20260905153523 91 171 2.0 4.0 0.00 0.00 0.00 66 1013.4
20260905152527 90 156 2.0 4.0 0.00 0.00 0.00 68 1013.4
20260905151551 89 34 2.0 3.0 0.00 0.00 0.00 69 1013.4
20260905150519 89 78 2.0 3.0 0.00 0.00 0.00 70 1013.3
20260905145522 87 127 1.0 3.0 0.00 0.00 0.00 74 1013.3
20260905144526 86 299 1.0 3.0 0.00 0.00 0.00 74 1013.2
20260905143532 86 149 2.0 3.0 0.00 0.00 0.00 76 1013.3
20260905142517 85 132 2.0 4.0 0.00 0.00 0.00 76 1013.3
20260905141521 85 0 0.0 2.0 0.00 0.00 0.00 77 1013.3
20260905140547 84 179 1.0 5.0 0.00 0.00 0.00 76 1013.4
20260905135523 84 145 1.0 4.0 0.00 0.00 0.00 79 1013.4
20260905134520 83 0.0 0.0 0.00 0.00 0.00 80 1013.3
20260905133519 82 0.0 3.0 0.00 0.00 0.00 84 1013.3
20260905132518 81 350 0.0 2.0 0.00 0.00 0.00 87 1013.2
20260905131516 79 0.0 0.0 0.00 0.00 0.00 92 1013.2
20260905130532 78 0.0 0.0 0.00 0.00 0.00 93 1013.2
20260905125518 78 0.0 0.0 0.00 0.00 0.00 94 1013.1
20260905124523 77 0.0 0.0 0.00 0.00 0.00 95 1013.1
20260905123527 76 0.0 0.0 0.00 0.00 0.00 95 1012.8
20260905122532 76 0.0 0.0 0.00 0.00 0.00 95 1012.8
20260905121519 75 0.0 0.0 0.00 0.00 0.00 96 1012.8
20260905120523 75 0.0 0.0 0.00 0.00 0.00 96 1012.7
20260905115550 75 0.0 0.0 0.00 0.00 0.00 96 1012.6
20260905114531 75 0.0 0.0 0.00 0.00 0.00 96 1012.4
20260905113516 75 0.0 0.0 0.00 0.00 0.00 96 1012.3
20260905112541 75 0.0 0.0 0.00 0.00 0.00 96 1012.3
20260905111525 75 0.0 0.0 0.00 0.00 0.00 96 1012.3
20260905110529 75 0.0 0.0 0.00 0.00 0.00 96 1012.2
20260905105515 75 0.0 0.0 0.00 0.00 0.00 96 1012.1
20260905104519 75 0.0 0.0 0.00 0.00 0.00 95 1012.2
20260905103523 75 0.0 0.0 0.00 0.00 0.00 95 1012.2
20260905102529 75 0.0 0.0 0.00 0.00 0.00 95 1012.3
20260905101533 75 0.0 0.0 0.00 0.00 0.00 95 1012.3
20260905100518 76 0.0 0.0 0.00 0.00 0.00 95 1012.3
20260905095522 76 0.0 0.0 0.00 0.00 0.00 95 1012.3
20260905094550 76 0.0 0.0 0.00 0.00 0.00 95 1012.3
20260905093530 76 0.0 0.0 0.00 0.00 0.00 95 1012.3
20260905092517 76 0.0 0.0 0.00 0.00 0.00 95 1012.3
20260905091521 76 0.0 0.0 0.00 0.00 0.00 94 1012.3
20260905090525 77 0.0 0.0 0.00 0.00 0.00 94 1012.2
20260905085529 77 0.0 0.0 0.00 0.00 0.00 94 1012.3
20260905084515 77 0.0 0.0 0.00 0.00 0.00 94 1012.5
20260905083521 77 0.0 0.0 0.00 0.00 0.00 94 1012.4
20260905082524 77 0.0 0.0 0.00 0.00 0.00 94 1012.4
20260905081524 77 0.0 0.0 0.00 0.00 0.00 94 1012.5
20260905080522 77 0.0 0.0 0.00 0.00 0.00 94 1012.6
20260905075520 77 0.0 0.0 0.00 0.00 0.00 94 1012.6
20260905074518 78 0.0 0.0 0.00 0.00 0.00 93 1012.6
20260905073520 78 0.0 0.0 0.00 0.00 0.00 93 1012.7
20260905072532 78 0.0 0.0 0.00 0.00 0.00 92 1012.7
20260905071518 78 0.0 0.0 0.00 0.00 0.00 92 1012.7
20260905070543 78 0.0 0.0 0.00 0.00 0.00 92 1012.7
20260905065548 78 0.0 0.0 0.00 0.00 0.00 91 1012.7
20260905064530 78 0.0 0.0 0.00 0.00 0.00 91 1012.7
20260905063538 78 0.0 0.0 0.00 0.00 0.00 92 1012.7
20260905062521 78 0.0 0.0 0.00 0.00 0.00 91 1012.9
20260905061525 78 0.0 0.0 0.00 0.00 0.00 91 1012.9
20260905060531 78 0.0 0.0 0.00 0.00 0.00 90 1012.9
20260905055516 79 0.0 0.0 0.00 0.00 0.00 90 1012.9
20260905054521 79 0.0 0.0 0.00 0.00 0.00 91 1012.9
20260905053544 79 0.0 0.0 0.00 0.00 0.00 90 1012.9
20260905052548 80 0.0 0.0 0.00 0.00 0.00 89 1012.9
20260905051532 80 0.0 0.0 0.00 0.00 0.00 88 1012.8
20260905050519 80 0.0 0.0 0.00 0.00 0.00 87 1012.7
20260905045523 80 0.0 0.0 0.00 0.00 0.00 87 1012.8
20260905044529 80 0.0 0.0 0.00 0.00 0.00 86 1012.8
20260905043531 81 0.0 0.0 0.00 0.00 0.00 87 1012.7
20260905042619 81 0.0 0.0 0.00 0.00 0.00 86 1012.7
20260905041522 81 0.0 0.0 0.00 0.00 0.00 84 1012.6
20260905040526 82 0.0 0.0 0.00 0.00 0.00 83 1012.6
20260905035530 82 0.0 0.0 0.00 0.00 0.00 82 1012.6
20260905034516 82 0.0 0.0 0.00 0.00 0.00 81 1012.6
20260905033522 82 0.0 0.0 0.00 0.00 0.00 78 1012.6
20260905032525 83 0.0 0.0 0.00 0.00 0.00 78 1012.7
20260905031529 83 0.0 0.0 0.00 0.00 0.00 78 1012.8
20260905030517 84 0.0 0.0 0.00 0.00 0.00 78 1012.8
20260905025521 84 0.0 0.0 0.00 0.00 0.00 78 1012.8
20260905024523 84 0.0 0.0 0.00 0.00 0.00 78 1012.8
20260905023545 84 0.0 0.0 0.00 0.00 0.00 77 1012.6
20260905022522 84 270 0.0 2.0 0.00 0.00 0.00 77 1012.4
20260905021600 85 0.0 0.0 0.00 0.00 0.00 77 1012.4
20260905020537 85 0.0 0.0 0.00 0.00 0.00 75 1012.3
20260905015527 86 0.0 0.0 0.00 0.00 0.00 74 1012.3
20260905014531 86 0.0 0.0 0.00 0.00 0.00 72 1012.1
20260905013517 86 0.0 0.0 0.00 0.00 0.00 70 1011.9